When you browse on this site, cookies collect data to enhance your experience and personalize the content and advertising you see.
Visit our Privacy Policy to learn more. By continuing to use the site, you agree to this use of cookies and data.
  • In Romania
  • List of Countries
  • For 7 days
  • Water Temperature
  • Satellite Maps
  • Weather Map
  • Weather Widgets
  • user-avatar
    Login

    Hourly Weather Bregenz

    Today, 23 May, Thursday

    Time Temperature Precipitation Wind Pressure Humidity
    00:00 +4°C° 0 mm 1 mps 647 mmHg 92%
    01:00 +4°C° 0 mm 1 mps 647 mmHg 94%
    02:00 +4°C° 0 mm 1 mps 647 mmHg 94%
    03:00 +3°C° 0 mm 1 mps 647 mmHg 94%
    04:00 +3°C° 0 mm 1 mps 647 mmHg 94%
    05:00 +4°C° 0 mm 1 mps 647 mmHg 92%
    06:00 +5°C° 0 mm 1 mps 647 mmHg 89%
    07:00 +7°C° 0 mm 1 mps 647 mmHg 87%
    08:00 +9°C° 0 mm 1 mps 648 mmHg 78%
    09:00 +11°C° 0 mm 1 mps 648 mmHg 69%
    10:00 +13°C° 0 mm 1 mps 648 mmHg 59%
    11:00 +14°C° 0 mm 1 mps 648 mmHg 56%
    12:00 +15°C° 0 mm 2 mps 648 mmHg 53%
    13:00 +15°C° 0 mm 2 mps 648 mmHg 52%
    14:00 +15°C° 0 mm 2 mps 648 mmHg 53%
    15:00 +15°C° 0 mm 2 mps 648 mmHg 54%
    16:00 +15°C° 0 mm 2 mps 648 mmHg 54%
    17:00 +13°C° 0 mm 2 mps 647 mmHg 62%
    18:00 +12°C° 0 mm 2 mps 647 mmHg 70%
    19:00 +11°C° 0 mm 1 mps 646 mmHg 78%
    20:00 +9°C° 0 mm 1 mps 646 mmHg 83%
    21:00 +8°C° 0 mm 1 mps 646 mmHg 88%
    22:00 +6°C° 0 mm 1 mps 646 mmHg 93%
    23:00 +6°C° 0 mm 1 mps 646 mmHg 93%

    Tomorrow, 24 May, Friday

    Time Temperature Precipitation Wind Pressure Humidity
    00:00 +5°C° 0 mm 1 mps 645 mmHg 92%
    01:00 +5°C° 0 mm 1 mps 645 mmHg 92%
    02:00 +5°C° 0 mm 1 mps 645 mmHg 91%
    03:00 +5°C° 0 mm 1 mps 645 mmHg 90%
    04:00 +4°C° 0 mm 1 mps 645 mmHg 89%
    05:00 +6°C° 0 mm 1 mps 645 mmHg 83%
    06:00 +8°C° 0 mm 1 mps 645 mmHg 77%
    07:00 +8°C° 0 mm 0 mps 646 mmHg 71%
    08:00 +11°C° 0 mm 1 mps 646 mmHg 64%
    09:00 +13°C° 0 mm 1 mps 646 mmHg 58%
    10:00 +15°C° 0 mm 1 mps 647 mmHg 51%
    11:00 +15°C° 0 mm 1 mps 647 mmHg 49%
    12:00 +16°C° 0 mm 2 mps 647 mmHg 47%
    13:00 +17°C° 0 mm 2 mps 647 mmHg 46%
    14:00 +16°C° 0 mm 2 mps 647 mmHg 47%
    15:00 +16°C° 0 mm 2 mps 646 mmHg 49%
    16:00 +16°C° 0 mm 2 mps 646 mmHg 51%
    17:00 +15°C° 0 mm 2 mps 646 mmHg 59%
    18:00 +13°C° 0 mm 1 mps 645 mmHg 66%
    19:00 +12°C° 0 mm 1 mps 645 mmHg 74%
    20:00 +11°C° 0 mm 1 mps 645 mmHg 78%
    21:00 +9°C° 0 mm 1 mps 644 mmHg 82%
    22:00 +8°C° 0 mm 1 mps 644 mmHg 86%
    23:00 +7°C° 0 mm 1 mps 644 mmHg 86%

    Day after tomorrow, 25 May, Saturday

    Time Temperature Precipitation Wind Pressure Humidity
    00:00 +7°C° 0 mm 1 mps 644 mmHg 86%
    01:00 +6°C° 0 mm 1 mps 644 mmHg 86%
    02:00 +6°C° 0 mm 1 mps 644 mmHg 86%
    03:00 +6°C° 0 mm 1 mps 644 mmHg 85%
    04:00 +6°C° 0 mm 1 mps 644 mmHg 85%
    05:00 +7°C° 0 mm 1 mps 644 mmHg 81%
    06:00 +9°C° 0 mm 1 mps 645 mmHg 77%
    07:00 +9°C° 0 mm 0 mps 645 mmHg 73%
    08:00 +12°C° 0 mm 1 mps 646 mmHg 69%
    09:00 +13°C° 0 mm 1 mps 646 mmHg 65%
    10:00 +14°C° 0 mm 1 mps 647 mmHg 61%
    11:00 +14°C° 0.1 mm 1 mps 647 mmHg 61%
    12:00 +15°C° 0.1 mm 1 mps 647 mmHg 62%
    13:00 +15°C° 0.1 mm 1 mps 647 mmHg 63%
    14:00 +14°C° 0.6 mm 1 mps 646 mmHg 68%
    15:00 +14°C° 0.6 mm 1 mps 646 mmHg 74%
    16:00 +13°C° 0.6 mm 1 mps 646 mmHg 80%
    17:00 +12°C° 0.8 mm 1 mps 646 mmHg 84%
    18:00 +11°C° 0.8 mm 1 mps 646 mmHg 88%
    19:00 +10°C° 0.8 mm 1 mps 646 mmHg 93%
    20:00 +9°C° 0.4 mm 1 mps 646 mmHg 93%
    21:00 +8°C° 0.4 mm 1 mps 646 mmHg 94%
    22:00 +7°C° 0.4 mm 1 mps 646 mmHg 95%
    23:00 +7°C° 0.1 mm 1 mps 645 mmHg 95%

    26 May, Sunday

    Time Temperature Precipitation Wind Pressure Humidity
    00:00 +7°C° 0.1 mm 1 mps 645 mmHg 95%
    01:00 +6°C° 0.1 mm 1 mps 645 mmHg 95%
    02:00 +6°C° 0 mm 1 mps 645 mmHg 95%
    03:00 +6°C° 0 mm 1 mps 645 mmHg 95%
    04:00 +6°C° 0 mm 1 mps 645 mmHg 95%
    05:00 +6°C° 0.1 mm 1 mps 645 mmHg 95%
    06:00 +6°C° 0.1 mm 0 mps 645 mmHg 94%
    07:00 +7°C° 0.1 mm 0 mps 646 mmHg 94%
    08:00 +9°C° 0.1 mm 1 mps 646 mmHg 89%
    09:00 +10°C° 0.1 mm 1 mps 646 mmHg 83%
    10:00 +11°C° 0.1 mm 1 mps 647 mmHg 78%
    11:00 +13°C° 0 mm 1 mps 647 mmHg 68%
    12:00 +14°C° 0 mm 2 mps 647 mmHg 59%
    13:00 +15°C° 0 mm 2 mps 647 mmHg 49%
    14:00 +15°C° 0 mm 2 mps 647 mmHg 48%
    15:00 +15°C° 0 mm 2 mps 647 mmHg 48%
    16:00 +15°C° 0 mm 2 mps 647 mmHg 47%
    17:00 +14°C° 0 mm 1 mps 646 mmHg 54%
    18:00 +13°C° 0 mm 1 mps 646 mmHg 62%
    19:00 +12°C° 0 mm 1 mps 646 mmHg 69%
    20:00 +10°C° 0 mm 1 mps 645 mmHg 72%
    21:00 +9°C° 0 mm 1 mps 645 mmHg 75%
    22:00 +6°C° 0 mm 2 mps 645 mmHg 78%
    23:00 +6°C° 0 mm 2 mps 645 mmHg 79%

    27 May, Monday

    Time Temperature Precipitation Wind Pressure Humidity
    00:00 +5°C° 0 mm 2 mps 644 mmHg 80%
    01:00 +5°C° 0 mm 2 mps 644 mmHg 81%
    02:00 +5°C° 0 mm 2 mps 644 mmHg 80%
    03:00 +5°C° 0 mm 2 mps 643 mmHg 79%
    04:00 +4°C° 0 mm 2 mps 643 mmHg 78%
    05:00 +7°C° 0 mm 1 mps 644 mmHg 74%
    06:00 +9°C° 0 mm 1 mps 644 mmHg 70%
    07:00 +10°C° 0 mm 1 mps 644 mmHg 66%
    08:00 +12°C° 0 mm 1 mps 645 mmHg 64%
    09:00 +13°C° 0 mm 1 mps 645 mmHg 63%
    10:00 +14°C° 0 mm 2 mps 645 mmHg 62%
    11:00 +14°C° 0.1 mm 2 mps 645 mmHg 63%
    12:00 +15°C° 0.1 mm 2 mps 645 mmHg 64%
    13:00 +15°C° 0.1 mm 2 mps 645 mmHg 65%
    14:00 +15°C° 0.2 mm 2 mps 644 mmHg 66%
    15:00 +15°C° 0.2 mm 2 mps 644 mmHg 67%
    16:00 +15°C° 0.2 mm 2 mps 644 mmHg 68%
    17:00 +14°C° 0.4 mm 2 mps 643 mmHg 75%
    18:00 +13°C° 0.4 mm 2 mps 643 mmHg 83%
    19:00 +10°C° 0.4 mm 2 mps 643 mmHg 90%
    20:00 +11°C° 0.4 mm 1 mps 642 mmHg 92%
    21:00 +10°C° 0.4 mm 1 mps 642 mmHg 94%
    22:00 +9°C° 0.4 mm 1 mps 642 mmHg 96%
    23:00 +9°C° 0.4 mm 1 mps 642 mmHg 96%

    28 May, Tuesday

    Time Temperature Precipitation Wind Pressure Humidity
    00:00 +9°C° 0.4 mm 1 mps 642 mmHg 97%
    01:00 +9°C° 0.4 mm 1 mps 641 mmHg 97%
    02:00 +8°C° 0.6 mm 1 mps 641 mmHg 97%
    03:00 +8°C° 0.6 mm 1 mps 641 mmHg 98%
    04:00 +8°C° 0.6 mm 1 mps 640 mmHg 98%
    05:00 +8°C° 1.6 mm 1 mps 640 mmHg 98%
    06:00 +7°C° 1.6 mm 1 mps 640 mmHg 98%
    07:00 +6°C° 1.6 mm 2 mps 640 mmHg 98%
    08:00 +6°C° 1.1 mm 2 mps 640 mmHg 98%
    09:00 +6°C° 1.1 mm 2 mps 640 mmHg 98%
    10:00 +5°C° 1.1 mm 2 mps 639 mmHg 98%
    11:00 +5°C° 1.1 mm 2 mps 639 mmHg 98%
    12:00 +5°C° 1.1 mm 2 mps 639 mmHg 98%
    13:00 +6°C° 1.1 mm 1 mps 639 mmHg 97%
    14:00 +6°C° 0.9 mm 1 mps 639 mmHg 97%
    15:00 +6°C° 0.9 mm 1 mps 639 mmHg 97%
    16:00 +6°C° 0.9 mm 1 mps 639 mmHg 96%
    17:00 +5°C° 0.9 mm 1 mps 639 mmHg 96%
    18:00 +4°C° 0.9 mm 0 mps 640 mmHg 97%
    19:00 +4°C° 0.9 mm 0 mps 640 mmHg 97%
    20:00 +4°C° 0.9 mm 0 mps 640 mmHg 98%
    21:00 +5°C° 0.9 mm 1 mps 640 mmHg 98%
    22:00 +4°C° 0.9 mm 1 mps 640 mmHg 98%
    23:00 +4°C° 1.7 mm 1 mps 640 mmHg 98%
    Show more